Bogota, Colombia

5:57 AM -05 on March 26, 2017 (GMT -0500)
Eldorado International

Weather History for SKBO - September, 2013

Change the Weather History Date:

Saturday, September 14, 2013

  Actual Average Record
Temperature  
Mean Temperature 58 °F -  
Max Temperature 68 °F 64 °F 70 °F (2016)
Min Temperature 48 °F 45 °F 37 °F (1997)
Degree Days  
Heating Degree Days 7    
Growing Degree Days 8 (Base 50)    
Moisture  
Dew Point 47 °F    
Average Humidity 69    
Maximum Humidity 100    
Minimum Humidity 31    
Precipitation  
Precipitation 0.00 in 0.12 in - ()
Sea Level Pressure  
Sea Level Pressure 30.27 in    
Wind  
Wind Speed 7 mph ()    
Max Wind Speed 23 mph    
Max Gust Speed -    
Visibility 7.2 miles    
Events Fog    
Averages and records for this station are not official NWS values.
T = Trace of Precipitation, MM = Missing Value Source: Averaged Metar Reports

Daily Weather History Graph

Daily Weather History Graph

Search for Another Location

Airport or City:

Trip Planner

Search our weather history database for the weather conditions in past years. The results will help you decide how hot, cold, wet, or windy it might be!

Date:

Astronomy

Sep. 14, 2013 Rise Set
Actual Time 5:47 AM -05 5:56 PM -05
Civil Twilight 5:26 AM -05 6:17 PM -05
Nautical Twilight 5:02 AM -05 6:41 PM -05
Astronomical Twilight 4:38 AM -05 7:05 PM -05
Moon 1:49 PM -05 (9/14) 1:06 AM -05 (9/14)
Length of Visible Light 12h 50m
Length of Day
12h 08m
Waxing Gibbous, 72% of the Moon is Illuminated
Sep 14
Waxing Gibbous
Sep 19
Full
Sep 26
Last Quarter
Oct 4
New
Oct 11
First Quarter

Hourly Weather History & Observations

Time (-05) Temp. Dew Point Humidity Pressure Visibility Wind Dir Wind Speed Gust Speed Precip Events Conditions
12:00 AM 51.8 °F 50.0 °F 94% 30.37 in 6.2 mi Variable 2.3 mph - N/A   Mostly Cloudy
1:00 AM 51 °F 48 °F 87%  in 9 mi NE 6.7 mph - -   Haze
1:00 AM 51.8 °F 48.2 °F 88% 30.25 in 6.2 mi NE 5.8 mph - N/A   Mostly Cloudy
2:00 AM 51.8 °F 48.2 °F 88% 30.21 in 6.2 mi NE 5.8 mph - N/A   Mostly Cloudy
3:00 AM 50.0 °F 50.0 °F 100% 30.21 in 6.2 mi Calm Calm - N/A   Scattered Clouds
4:00 AM 51 °F 50 °F 93%  in 9 mi NNE 4.5 mph - -   Haze
4:00 AM 51.8 °F 50.0 °F 94% 30.23 in 6.2 mi NNE 3.5 mph - N/A   Scattered Clouds
5:00 AM 50.0 °F 50.0 °F 100% 30.25 in 6.2 mi Variable 2.3 mph - N/A   Scattered Clouds
5:30 AM 48.2 °F 48.2 °F 100% 30.26 in - North - - N/A Fog Shallow Fog
6:00 AM 48.2 °F 48.2 °F 100% 30.27 in 6.2 mi East 4.6 mph - N/A   Scattered Clouds
7:00 AM 52 °F 50 °F 92%  in 11 mi NE 4.5 mph - -   Haze
7:00 AM 53.6 °F 50.0 °F 88% 30.28 in 6.2 mi NE 4.6 mph - N/A   Scattered Clouds
8:00 AM 57.2 °F 51.8 °F 82% 30.30 in 6.2 mi NE 5.8 mph - N/A   Mostly Cloudy
9:00 AM 60.8 °F 50.0 °F 68% 30.32 in 6.2 mi East 9.2 mph - N/A   Mostly Cloudy
10:00 AM 62 °F 47 °F 49%  in 11 mi ENE 13.4 mph - -   Haze
10:00 AM 60.8 °F 48.2 °F 63% 30.31 in 6.2 mi ENE 13.8 mph - N/A   Mostly Cloudy
11:00 AM 66.2 °F 46.4 °F 49% 30.30 in 6.2 mi ESE 13.8 mph - N/A   Mostly Cloudy
12:00 PM 68.0 °F 44.6 °F 43% 30.27 in 6.2 mi SSE 23.0 mph - N/A   Scattered Clouds
1:00 PM 67 °F 43 °F 31%  in 11 mi SE 11.2 mph - -   Haze
1:00 PM 68.0 °F 44.6 °F 43% 30.23 in 6.2 mi SE 11.5 mph - N/A   Mostly Cloudy
2:00 PM 68.0 °F 42.8 °F 40% 30.21 in 6.2 mi ESE 11.5 mph - N/A   Mostly Cloudy
3:00 PM 68.0 °F 44.6 °F 43% 30.20 in 6.2 mi SE 13.8 mph - N/A   Mostly Cloudy
4:00 PM 67 °F 46 °F 35%  in 11 mi South 17.9 mph - -   Haze
4:00 PM 66.2 °F 46.4 °F 49% 30.20 in 6.2 mi South 17.3 mph - N/A   Scattered Clouds
5:00 PM 66.2 °F 44.6 °F 46% 30.21 in 6.2 mi South 11.5 mph - N/A   Mostly Cloudy
6:00 PM 64.4 °F 46.4 °F 52% 30.23 in 6.2 mi East 5.8 mph - N/A   Mostly Cloudy
7:00 PM 60 °F 47 °F 52%  in 11 mi SE 11.2 mph - -   Haze
7:00 PM 60.8 °F 46.4 °F 59% 30.27 in 6.2 mi SE 11.5 mph - N/A   Scattered Clouds
8:00 PM 60.8 °F 46.4 °F 59% 30.31 in 6.2 mi East 5.8 mph - N/A   Scattered Clouds
9:00 PM 55.4 °F 46.4 °F 72% 30.32 in 6.2 mi SSE 9.2 mph - N/A   Scattered Clouds
10:00 PM 56 °F 47 °F 64%  in 9 mi East 4.5 mph - -   Haze
10:00 PM 57.2 °F 46.4 °F 67% 30.35 in 6.2 mi East 5.8 mph - N/A   Scattered Clouds
11:00 PM 53.6 °F 48.2 °F 82% 30.35 in 6.2 mi ENE 9.2 mph - N/A   Scattered Clouds